TimeEST,TemperatureF,Dew PointF,Humidity,Sea Level PressureIn,VisibilityMPH,Wind Direction,Wind SpeedMPH,Gust SpeedMPH,PrecipitationIn,Events,Conditions,WindDirDegrees,DateUTC
12:55 AM,36.5,17.2,46,30.19,10.0,NW,11.5,-,N/A,,Clear,310,2013-01-22 05:55:00
1:55 AM,34.2,17.4,50,30.18,10.0,NW,9.2,-,N/A,,Clear,310,2013-01-22 06:55:00
2:55 AM,32.5,16.0,51,30.19,10.0,NW,13.8,21.9,N/A,,Clear,320,2013-01-22 07:55:00
3:55 AM,30.6,14.7,52,30.19,10.0,NW,9.2,-,N/A,,Clear,320,2013-01-22 08:55:00
4:55 AM,29.7,13.3,51,30.20,10.0,NW,11.5,19.6,N/A,,Clear,320,2013-01-22 09:55:00
5:55 AM,29.3,11.1,47,30.23,10.0,NNW,12.7,20.7,N/A,,Clear,330,2013-01-22 10:55:00
6:55 AM,28.6,11.7,49,30.25,10.0,NW,9.2,19.6,N/A,,Partly Cloudy,320,2013-01-22 11:55:00
7:55 AM,28.0,11.7,50,30.27,10.0,NW,11.5,-,N/A,,Partly Cloudy,320,2013-01-22 12:55:00
8:55 AM,29.5,11.3,47,30.30,10.0,NW,9.2,19.6,N/A,,Partly Cloudy,320,2013-01-22 13:55:00
9:55 AM,30.9,9.5,41,30.33,10.0,NNW,13.8,-,N/A,,Partly Cloudy,330,2013-01-22 14:55:00
10:55 AM,33.6,10.4,38,30.35,10.0,NW,8.1,-,N/A,,Partly Cloudy,310,2013-01-22 15:55:00
11:55 AM,36.7,9.9,33,30.34,10.0,NW,12.7,-,N/A,,Partly Cloudy,310,2013-01-22 16:55:00
12:55 PM,39.4,10.6,31,30.32,10.0,NW,15.0,-,N/A,,Partly Cloudy,320,2013-01-22 17:55:00
1:55 PM,40.6,11.7,31,30.29,10.0,WNW,12.7,-,N/A,,Partly Cloudy,290,2013-01-22 18:55:00
2:55 PM,41.7,12.2,30,30.28,10.0,WNW,13.8,20.7,N/A,,Partly Cloudy,300,2013-01-22 19:55:00
3:55 PM,42.6,13.5,31,30.29,10.0,West,9.2,-,N/A,,Partly Cloudy,270,2013-01-22 20:55:00
4:55 PM,41.4,13.8,33,30.30,10.0,WNW,10.4,-,N/A,,Clear,300,2013-01-22 21:55:00
5:55 PM,38.7,15.3,39,30.30,10.0,NW,6.9,-,N/A,,Clear,310,2013-01-22 22:55:00
6:55 PM,34.5,16.9,49,30.31,10.0,West,6.9,-,N/A,,Clear,280,2013-01-22 23:55:00
7:55 PM,35.1,16.9,48,30.33,10.0,West,5.8,-,N/A,,Clear,280,2013-01-23 00:55:00
8:55 PM,34.0,16.2,48,30.33,10.0,West,6.9,-,N/A,,Clear,280,2013-01-23 01:55:00
9:55 PM,34.2,15.3,46,30.33,10.0,WNW,4.6,-,N/A,,Mostly Cloudy,300,2013-01-23 02:55:00
10:55 PM,33.3,14.5,46,30.33,10.0,WNW,5.8,-,N/A,,Clear,300,2013-01-23 03:55:00
11:55 PM,30.9,15.4,53,30.33,10.0,WNW,4.6,-,N/A,,Clear,290,2013-01-23 04:55:00